Temperature
21 18 18 18 19 19 21 21 20 22 24 24 24 24 25 27 27 26 25 24 24 24 26 25 24 24 23 23 22 22 22 21 20 20 19 19 18 18 18 17 17 17 17 17
19 18 19 20 21 21 21 20 21 21 23 24 23 23 24 25 25 27 26 26 25 25 25 24 24 23 23 23 23 22 22 21 20 20 19 19 18 18 17 17 16 16 16 16
19 19 21 21 21 21 21 20 21 21 23 23 24 23 22 24 26 27 28 28 28 27 25 24 23 23 22 23 22 21 21 20 19 19 18 18 18 17 16 16 15 15 15 15
19 21 22 22 21 22 21 22 23 23 22 20 23 21 21 22 23 24 26 28 28 27 26 24 23 22 22 22 21 20 20 19 18 18 17 17 17 16 16 15 15 14 14 13
20 21 21 22 23 23 22 23 23 23 22 21 21 20 19 20 23 23 24 27 28 27 25 23 22 21 20 20 19 19 19 18 18 17 17 16 16 15 15 14 14 14 13 13
21 22 22 22 24 24 24 23 22 19 18 20 21 21 19 20 22 23 23 25 25 24 23 21 20 19 18 18 18 19 18 18 17 17 16 15 15 15 14 14 13 13 12 12
20 21 23 24 23 23 23 20 19 20 17 18 20 21 20 21 22 22 21 20 20 20 19 18 18 17 17 17 17 17 17 17 16 16 15 15 14 14 14 13 12 12 11 11
19 20 22 23 23 22 21 20 18 19 18 18 20 20 20 21 21 20 19 18 17 17 17 17 17 16 16 16 16 16 16 15 15 15 14 14 13 13 12 12 11 11 10 9
19 20 23 24 24 23 22 20 19 18 18 19 18 20 21 20 19 18 17 16 15 15 16 16 16 15 15 15 15 15 15 14 14 14 13 12 12 11 11 10 10 9 9 8
20 20 22 24 24 23 22 21 17 17 17 18 19 19 18 17 17 16 16 15 14 14 15 15 15 14 14 14 14 14 13 13 13 12 11 11 10 10 9 9 9 8 8 8
19 19 21 22 22 22 22 22 19 16 17 17 18 17 18 16 16 16 15 14 13 14 14 14 14 14 14 14 13 13 12 11 11 11 10 10 9 9 8 8 8 7 7 7
17 17 18 21 22 23 22 21 19 18 18 17 16 15 17 15 15 15 14 13 13 13 13 13 13 13 13 12 12 12 11 10 10 9 9 9 8 8 7 7 7 7 6 6
17 16 17 18 18 20 20 20 19 17 16 16 15 15 15 15 14 14 13 12 11 12 12 11 11 11 11 11 10 10 9 9 9 8 8 7 7 7 7 6 6 6 6 6
17 15 16 16 17 19 19 20 19 17 16 16 16 15 14 13 13 13 12 11 11 11 10 10 10 9 9 9 9 9 8 8 8 7 7 7 6 6 6 6 6 6 5 5
15 15 16 17 18 19 19 19 20 19 18 16 15 14 13 12 12 12 11 11 10 10 10 10 9 9 8 8 8 8 7 7 7 6 6 6 6 6 5 5 5 5 5 4
13 15 15 15 17 18 18 18 19 18 18 16 14 13 12 11 11 11 11 10 10 9 9 9 8 8 8 8 7 7 7 6 6 6 5 5 5 5 5 5 4 4 4 4
13 13 13 13 15 17 15 16 16 15 15 15 13 12 11 10 10 10 10 10 9 8 8 8 8 7 7 7 7 6 6 5 5 5 5 4 4 4 4 4 4 4 3 3
13 13 11 12 14 14 14 15 15 14 13 13 12 11 10 9 8 8 8 8 8 8 7 7 7 7 6 6 6 5 5 4 4 4 4 4 4 4 4 4 3 3 2 2
12 12 12 11 13 14 15 15 15 12 12 12 11 10 8 8 8 7 7 7 7 7 7 6 6 6 5 5 5 4 4 4 4 4 4 4 4 3 3 3 2 2 1 1
11 11 11 11 12 12 13 14 15 12 11 12 11 10 9 9 8 6 6 6 6 6 6 5 5 5 4 4 4 4 4 4 4 4 3 3 3 3 2 2 2 1 1 0
11 10 10 10 11 12 13 14 14 12 10 12 11 10 9 7 7 6 6 5 5 5 5 4 4 4 4 4 4 4 4 4 3 3 3 3 3 2 2 1 1 0 0 0
10 10 10 10 10 10 12 12 11 10 11 11 11 10 8 6 6 5 5 5 4 4 4 4 4 4 4 4 4 4 4 3 3 3 3 3 2 2 1 1 0 0 0 -0
10 10 9 9 9 10 12 11 12 12 11 11 10 9 8 6 5 5 4 4 4 4 4 4 4 4 4 4 4 4 4 3 3 3 3 2 2 2 1 1 0 0 -0 -0
10 11 10 9 9 10 11 11 11 11 11 10 10 8 7 6 5 4 4 4 4 4 4 4 4 4 4 4 4 4 4 3 3 3 3 2 2 1 1 0 0 -0 -0 -1
10 10 9 9 9 9 10 10 10 10 9 9 8 7 6 5 4 4 4 4 4 4 4 4 4 4 4 4 4 4 4 3 3 3 3 2 2 1 1 0 0 -0 -1 -1
8 8 8 8 9 8 8 9 9 9 8 7 7 5 5 5 4 4 4 4 4 4 4 4 4 4 4 4 4 3 3 3 3 3 2 2 2 1 1 0 0 -0 -1 -1
Wind_Speed
6 5 8 10 9 8 6 7 11 14 14 9 12 16 19 17 12 11 16 20 22 24 21 16 18 19 18 18 19 19 17 17 14 11 9 8 7 6 6 6 10 12 13 13
4 9 13 10 7 7 9 11 14 15 15 8 9 11 12 12 12 12 14 16 19 18 15 16 18 19 21 21 19 16 15 13 11 8 6 5 6 6 6 5 9 12 13 13
13 9 8 9 10 10 12 13 16 15 16 9 5 9 10 9 5 5 9 12 14 17 20 21 21 21 18 17 15 11 9 7 7 9 9 9 7 6 4 6 6 8 12 13
10 12 9 10 13 13 14 16 15 15 11 8 1 4 10 8 9 8 8 7 9 10 15 18 19 17 15 11 9 9 10 10 9 10 10 10 6 5 4 5 6 7 11 11
9 8 12 14 19 16 16 18 12 9 5 2 5 1 9 8 8 11 11 10 9 6 12 15 14 13 11 11 10 10 12 11 11 10 9 9 8 7 7 7 9 8 7 9
11 9 9 13 16 15 14 7 2 4 5 3 5 1 8 7 9 11 9 6 3 6 11 12 12 14 13 12 12 11 12 11 11 12 10 11 12 12 11 8 7 6 5 5
11 12 10 8 10 11 5 5 3 4 5 6 5 2 9 9 9 6 4 6 10 13 13 14 15 14 13 13 11 11 12 11 11 12 10 11 11 11 11 9 8 7 6 5
9 10 8 8 10 10 7 11 10 7 6 6 4 5 4 6 7 11 13 14 17 17 16 16 15 14 13 13 12 11 12 11 11 12 11 10 10 8 7 8 7 7 6 6
9 9 8 8 8 9 6 7 11 9 6 2 6 6 4 10 13 16 17 18 18 17 17 17 16 16 14 13 12 11 12 12 12 12 12 11 10 10 10 9 8 7 7 6
9 7 7 6 5 3 9 9 7 7 7 5 5 3 5 7 7 13 16 17 16 16 16 15 14 14 13 13 12 11 11 12 11 10 10 11 10 10 10 10 9 8 6 5
3 6 5 4 4 5 3 3 5 6 6 8 3 1 2 1 7 14 15 15 15 14 13 12 11 11 12 12 12 12 11 10 10 10 9 10 8 8 8 8 8 7 6 5
5 4 2 3 4 2 5 5 4 3 3 5 6 2 6 4 7 13 15 14 13 12 11 10 9 10 10 11 11 12 11 9 9 9 9 8 8 8 8 7 7 6 5 5
5 6 4 7 8 9 7 6 5 4 4 3 5 3 5 6 9 10 12 12 11 11 10 9 8 8 8 9 9 10 9 9 8 8 9 9 8 8 8 7 7 8 8 8
4 5 4 3 2 5 5 6 5 5 4 3 5 6 4 6 8 8 10 11 11 10 9 8 8 7 8 8 8 9 8 7 8 9 9 9 8 8 9 9 9 9 9 9
5 4 3 2 4 5 5 7 5 3 4 7 9 8 4 4 7 9 10 11 11 11 10 9 8 7 8 9 9 9 9 8 9 10 9 8 8 9 9 9 9 9 8 8
5 4 5 7 10 8 7 9 6 6 3 10 14 8 5 7 9 10 9 10 11 11 10 9 9 9 9 9 10 10 10 9 10 10 8 8 8 9 9 8 8 8 7 6
3 4 4 4 7 6 8 10 9 9 7 6 6 7 8 10 11 8 8 9 10 10 10 9 9 9 9 9 10 10 9 9 10 9 8 8 7 8 7 8 7 7 5 5
3 3 3 2 6 3 2 8 15 16 15 13 14 12 12 13 10 11 9 9 10 10 10 9 9 9 8 8 9 9 9 9 9 8 6 6 7 7 7 7 6 5 4 4
2 5 4 3 2 2 1 4 2 7 8 7 11 12 13 13 10 8 8 8 8 9 9 9 9 9 9 8 8 8 8 7 6 5 4 5 6 7 6 6 5 3 3 3
7 5 5 4 3 2 1 6 4 11 4 2 7 10 11 7 3 3 5 7 9 9 9 9 8 9 8 7 6 6 5 5 5 5 5 6 7 6 5 4 3 3 3 3
5 5 3 3 2 2 4 6 3 4 5 2 5 6 6 4 5 9 9 8 9 9 8 8 8 7 6 5 5 5 5 4 4 5 6 6 6 5 4 3 2 3 4 5
2 1 1 2 2 5 5 5 4 5 4 5 5 6 10 12 12 11 10 10 9 9 8 7 6 5 3 3 5 5 4 3 4 5 6 6 5 4 4 4 4 5 5 5
1 3 4 4 5 3 3 6 5 5 5 4 6 9 14 13 11 11 9 9 8 7 6 4 5 4 2 2 3 3 1 2 4 5 6 5 5 5 4 4 4 4 5 4
4 1 2 3 2 3 5 5 5 5 5 7 10 12 13 14 13 12 10 8 7 5 4 3 4 4 3 2 2 1 0 1 4 5 5 5 4 3 3 3 3 3 3 3
4 3 3 3 2 4 4 4 6 8 10 12 11 10 12 15 14 12 9 7 5 4 3 3 3 4 3 2 3 2 3 4 5 6 5 4 3 2 1 1 2 3 2 2
2 1 2 4 4 4 3 3 7 10 10 12 14 12 12 12 13 10 8 6 5 4 3 3 4 4 3 4 4 4 5 6 7 5 4 3 2 1 1 1 1 2 3 4
Wind_Direction
210 161 216 225 211 201 225 262 275 277 282 291 272 265 267 268 254 217 199 199 206 213 212 192 184 181 177 179 181 181 179 179 171 164 154 151 146 128 109 98 101 102 102 100
229 232 224 218 233 240 248 261 271 283 281 261 264 273 269 263 246 222 198 196 203 208 203 192 185 182 183 184 185 182 182 177 165 153 135 116 109 93 79 76 76 83 89 91
206 230 218 219 240 246 252 241 251 257 279 302 303 315 316 307 291 235 202 198 199 194 189 188 186 187 184 182 179 172 158 144 126 119 110 104 93 86 81 76 68 65 79 83
228 237 234 227 235 231 253 244 240 247 256 274 285 284 296 305 326 314 288 263 236 203 183 181 179 178 174 165 142 130 124 115 112 116 126 135 135 127 109 105 97 81 82 87
235 223 216 231 240 233 238 251 244 240 218 313 348 354 287 312 302 286 283 276 262 213 175 170 165 155 136 123 119 117 113 110 113 114 127 130 120 116 116 112 106 97 90 96
243 250 219 226 243 238 233 234 2 56 72 344 276 299 290 278 261 274 283 289 281 133 131 129 121 116 109 104 103 105 107 105 109 117 126 131 133 132 128 122 118 108 97 89
271 273 258 246 267 276 206 137 36 340 359 262 276 262 262 285 292 281 307 44 75 94 102 106 104 103 99 94 91 95 99 100 104 110 116 123 128 129 132 132 129 125 113 104
231 270 255 231 218 232 217 153 165 193 219 266 315 222 265 332 8 56 69 75 79 79 81 82 79 79 79 77 75 82 90 91 92 97 98 100 102 105 111 113 116 120 121 119
204 244 264 256 240 192 184 186 177 157 183 219 277 278 350 14 45 67 78 81 80 78 75 73 69 68 68 69 68 75 85 86 86 90 94 94 94 95 98 99 96 103 110 116
193 242 286 303 344 309 182 164 111 133 165 220 277 342 342 345 51 84 93 94 92 87 83 80 78 80 81 81 78 74 81 88 88 88 92 99 97 99 103 103 102 105 107 110
175 200 293 17 50 337 4 99 119 136 156 162 181 331 341 30 93 105 106 104 104 102 101 100 99 99 102 102 101 95 87 89 91 90 92 94 94 99 101 104 108 110 108 107
11 130 233 268 293 341 69 56 92 139 238 158 142 118 12 56 91 111 114 111 108 105 101 100 101 102 105 108 110 108 105 103 101 99 95 93 92 94 95 96 97 96 89 73
36 69 43 356 5 12 34 27 55 107 93 92 119 133 24 56 79 99 110 109 103 97 94 89 86 89 96 101 102 102 105 107 103 98 93 88 86 89 90 86 80 76 72 66
83 74 107 125 326 321 340 1 47 88 107 116 135 133 62 70 83 92 100 103 106 102 97 91 87 87 90 87 86 89 87 90 93 89 88 84 80 81 81 78 74 73 74 73
68 73 54 31 359 3 349 350 11 70 162 161 152 127 113 85 97 105 113 115 114 111 106 104 101 97 89 82 77 77 77 80 87 84 79 78 76 74 74 73 71 70 70 74
45 65 45 14 3 359 8 8 47 56 87 124 119 100 82 78 82 88 100 116 114 113 112 109 103 97 92 89 86 82 78 75 77 76 72 69 69 70 71 73 70 69 65 62
29 69 68 1 346 21 14 7 70 65 44 120 121 121 114 85 69 64 73 96 106 110 110 105 99 95 92 90 91 87 79 73 70 68 67 67 71 74 73 75 70 65 59 54
134 101 110 54 41 47 81 71 79 71 54 73 99 110 108 102 83 57 56 84 96 103 103 100 99 95 87 84 83 83 78 76 75 72 72 74 85 83 76 73 65 56 46 40
124 135 111 102 98 292 72 21 94 104 58 72 113 125 127 125 94 59 49 71 88 97 102 101 100 100 92 84 83 84 80 79 80 82 80 85 95 91 80 70 55 39 35 20
38 76 108 109 123 219 293 329 86 106 90 50 125 147 165 175 129 127 98 96 98 100 102 102 99 94 88 80 80 85 87 87 94 94 89 92 102 103 95 81 51 29 29 18
20 28 71 114 167 261 316 324 45 126 175 166 116 128 137 134 127 129 121 111 109 105 101 98 96 93 92 87 84 86 88 98 110 104 98 101 108 113 103 75 44 36 36 34
137 106 139 133 188 242 316 40 95 162 155 118 112 116 116 116 118 124 125 121 116 110 103 99 99 97 93 93 98 100 110 130 120 110 102 95 96 93 87 73 48 41 43 37
114 191 193 182 202 226 66 105 131 136 126 133 135 134 130 128 130 129 126 123 118 114 110 106 109 104 94 108 115 118 160 141 116 111 109 104 92 76 82 84 68 49 39 33
325 343 85 68 94 105 85 87 78 93 112 123 133 135 133 132 134 131 129 126 123 121 119 110 102 96 83 74 86 131 215 122 115 127 130 127 115 94 78 85 93 82 52 30
309 2 57 87 125 88 62 81 97 95 102 110 115 121 131 132 134 134 134 137 139 139 131 125 119 113 104 78 53 43 67 100 107 123 137 142 149 151 134 127 149 149 187 184
330 88 164 206 211 164 172 139 115 111 114 121 122 119 125 131 133 135 140 149 152 153 150 132 121 115 104 88 74 70 83 97 106 117 133 149 163 180 183 181 273 244 217 221
Height
1483 1492 1497 1494 1493 1496 1496 1499 1502 1491 1480 1483 1483 1478 1468 1462 1462 1464 1467 1469 1471 1470 1470 1474 1477 1481 1485 1489 1492 1493 1495 1498 1503 1506 1509 1514 1518 1522 1525 1528 1530 1532 1534 1536
1487 1491 1484 1484 1486 1489 1493 1499 1498 1489 1477 1479 1480 1476 1466 1460 1458 1457 1458 1462 1464 1465 1468 1471 1473 1476 1479 1482 1485 1489 1492 1495 1499 1503 1507 1511 1515 1518 1522 1524 1526 1529 1531 1533
1487 1482 1478 1482 1486 1490 1492 1496 1493 1491 1479 1476 1477 1480 1470 1459 1455 1453 1453 1454 1456 1456 1458 1461 1465 1469 1473 1478 1482 1487 1491 1496 1500 1502 1504 1508 1512 1516 1518 1520 1523 1526 1528 1530
1479 1474 1476 1480 1482 1485 1491 1479 1480 1482 1487 1492 1482 1498 1479 1465 1459 1454 1452 1451 1450 1451 1453 1454 1458 1463 1468 1473 1480 1485 1490 1495 1499 1500 1502 1506 1508 1512 1514 1516 1519 1523 1526 1528
1475 1470 1473 1477 1473 1474 1477 1468 1473 1475 1481 1489 1486 1494 1489 1470 1464 1456 1449 1447 1446 1448 1450 1452 1455 1459 1466 1472 1478 1484 1489 1493 1496 1500 1503 1506 1508 1511 1512 1514 1517 1521 1523 1525
1468 1463 1465 1465 1462 1463 1463 1467 1471 1480 1490 1502 1489 1493 1494 1474 1462 1454 1447 1444 1444 1445 1448 1452 1456 1461 1467 1473 1479 1485 1489 1492 1494 1497 1500 1504 1507 1509 1511 1513 1516 1518 1520 1522
1471 1463 1459 1459 1462 1459 1462 1480 1500 1501 1511 1507 1487 1489 1488 1464 1455 1451 1449 1448 1448 1451 1454 1459 1463 1468 1473 1478 1482 1486 1489 1492 1493 1497 1499 1502 1504 1506 1508 1511 1513 1516 1518 1520
1479 1474 1456 1452 1456 1461 1462 1472 1498 1510 1513 1504 1486 1490 1479 1464 1456 1452 1454 1456 1457 1461 1464 1468 1472 1476 1481 1484 1488 1490 1492 1494 1495 1497 1500 1502 1503 1505 1507 1510 1512 1514 1517 1518
1471 1469 1448 1445 1444 1449 1459 1467 1467 1486 1494 1502 1498 1483 1472 1466 1461 1460 1463 1465 1467 1470 1473 1476 1479 1482 1486 1489 1493 1495 1496 1497 1498 1499 1500 1502 1503 1505 1507 1509 1512 1514 1516 1518
1457 1464 1451 1444 1441 1441 1445 1452 1474 1488 1503 1510 1498 1491 1493 1481 1473 1470 1471 1473 1475 1477 1479 1481 1484 1487 1490 1493 1496 1498 1499 1500 1501 1502 1503 1504 1506 1507 1509 1511 1512 1515 1516 1517
1453 1463 1457 1450 1452 1454 1449 1453 1463 1479 1486 1501 1506 1505 1486 1483 1477 1475 1477 1479 1480 1482 1484 1486 1487 1489 1491 1493 1495 1497 1500 1502 1503 1504 1505 1506 1508 1509 1510 1512 1514 1515 1516 1517
1456 1463 1467 1457 1449 1444 1447 1453 1461 1478 1484 1488 1498 1508 1486 1485 1481 1479 1481 1483 1485 1487 1488 1489 1490 1491 1492 1493 1494 1495 1499 1504 1505 1506 1507 1508 1509 1510 1512 1513 1514 1515 1516 1516
1458 1468 1477 1473 1468 1458 1457 1458 1460 1469 1481 1489 1499 1506 1489 1487 1486 1485 1486 1488 1490 1491 1493 1494 1494 1494 1495 1495 1496 1498 1501 1504 1507 1508 1509 1510 1511 1512 1513 1514 1514 1515 1515 1516
1458 1472 1480 1485 1482 1470 1467 1463 1463 1470 1486 1489 1490 1495 1493 1491 1490 1490 1491 1492 1494 1495 1497 1499 1499 1499 1499 1499 1500 1502 1505 1507 1508 1510 1510 1511 1513 1513 1514 1514 1515 1515 1515 1515
1463 1475 1473 1473 1469 1467 1466 1464 1463 1467 1472 1482 1485 1491 1494 1492 1491 1492 1493 1494 1495 1496 1499 1501 1502 1502 1502 1502 1503 1505 1507 1508 1510 1511 1512 1513 1514 1514 1515 1515 1515 1515 1515 1514
1470 1475 1476 1477 1469 1467 1467 1465 1463 1466 1469 1476 1485 1493 1495 1494 1493 1494 1495 1496 1497 1497 1499 1502 1503 1504 1503 1504 1505 1507 1508 1510 1511 1512 1513 1514 1515 1515 1516 1516 1516 1515 1515 1513
1477 1479 1485 1487 1477 1471 1482 1475 1472 1476 1475 1477 1486 1494 1496 1497 1497 1498 1498 1498 1499 1500 1502 1503 1504 1504 1505 1506 1507 1508 1510 1511 1512 1513 1515 1516 1516 1516 1517 1516 1516 1515 1513 1512
1477 1481 1488 1489 1485 1494 1493 1480 1479 1482 1485 1484 1489 1495 1498 1500 1502 1502 1502 1502 1502 1503 1503 1504 1505 1506 1507 1508 1509 1510 1511 1513 1514 1515 1517 1517 1518 1518 1517 1516 1515 1514 1512 1510
1473 1479 1487 1494 1494 1492 1485 1482 1481 1488 1495 1492 1494 1499 1501 1501 1502 1505 1505 1505 1505 1505 1505 1506 1507 1508 1509 1510 1512 1513 1514 1515 1516 1518 1519 1519 1519 1519 1518 1516 1515 1513 1511 1510
1476 1479 1488 1493 1495 1498 1492 1483 1482 1487 1500 1496 1495 1498 1500 1500 1504 1508 1507 1507 1507 1507 1507 1508 1509 1510 1511 1513 1514 1515 1516 1518 1519 1520 1520 1520 1520 1519 1518 1516 1514 1513 1511 1510
1487 1489 1492 1495 1497 1492 1488 1483 1481 1494 1501 1496 1495 1496 1497 1499 1502 1506 1507 1508 1508 1509 1510 1511 1512 1513 1515 1516 1517 1518 1519 1520 1521 1522 1522 1521 1521 1520 1518 1516 1514 1513 1511 1509
1492 1495 1495 1497 1500 1499 1487 1485 1490 1494 1493 1494 1495 1496 1496 1499 1502 1505 1507 1508 1510 1511 1513 1514 1515 1516 1518 1519 1520 1521 1522 1523 1523 1523 1523 1522 1521 1520 1518 1517 1515 1513 1511 1509
1492 1493 1492 1494 1497 1490 1487 1488 1490 1491 1492 1493 1494 1495 1496 1499 1503 1506 1508 1510 1512 1514 1516 1518 1519 1520 1521 1522 1523 1523 1524 1524 1524 1524 1523 1523 1522 1521 1519 1517 1516 1514 1512 1509
1490 1487 1489 1491 1492 1490 1489 1489 1490 1491 1491 1492 1493 1495 1497 1500 1503 1507 1510 1513 1515 1517 1519 1521 1522 1523 1524 1525 1525 1525 1525 1525 1525 1525 1524 1523 1522 1521 1520 1518 1516 1514 1512 1510
1492 1489 1490 1492 1492 1491 1491 1491 1491 1491 1491 1492 1494 1496 1498 1501 1504 1508 1512 1516 1518 1520 1522 1524 1525 1526 1527 1527 1527 1527 1527 1526 1525 1525 1524 1524 1523 1521 1520 1518 1517 1515 1512 1510
1491 1492 1492 1493 1490 1490 1491 1491 1491 1491 1492 1493 1495 1498 1501 1504 1507 1511 1515 1519 1521 1523 1525 1527 1528 1528 1529 1529 1529 1528 1528 1527 1526 1526 1525 1524 1523 1522 1520 1518 1517 1514 1513 1510